Location: Izdebno
(52.6670°N, 16.2170°E)
Time: 03:38:54
(UTC+01:00)

X-37B - Visible Passes

Search period start: 10 December 2022 00:00
Search period end: 20 December 2022 00:00
Orbit: 277 x 277 km, 45.0° (Epoch: 01 November)

Date Brightness Start Highest point End Pass type
(mag) Time Alt. Az. Time Alt. Az. Time Alt. Az.
12 Dec 2.7 17:03:19 10° SSW 17:04:20 12° SSE 17:05:21 10° SE visible
13 Dec 2.7 17:03:28 10° SSW 17:04:49 14° S 17:06:11 10° SE visible
14 Dec 2.7 17:03:51 10° SW 17:05:20 14° S 17:06:49 10° SE visible
15 Dec 2.8 17:04:22 10° SW 17:05:50 14° S 17:07:18 10° SSE visible
16 Dec 2.9 17:05:03 10° SW 17:06:21 13° S 17:07:37 10° SSE visible
17 Dec 3.1 17:06:00 10° SW 17:06:50 11° SSW 17:07:39 10° S visible
